Ahoskie, NC

12:57 PM EDT on June 22, 2017 (GMT -0400)
Tri County

Weather History for KASJ - August, 2013

Change the Weather History Date:

Monday, August 26, 2013

  Actual Average (KEMV) Record (KEMV)
Temperature  
Mean Temperature 65 °F -  
Max Temperature 81 °F 85 °F 95 °F (1993)
Min Temperature 49 °F 59 °F 46 °F (2013)
Growing Degree Days 15 (Base 50)    
Moisture  
Dew Point 54 °F    
Average Humidity 72    
Maximum Humidity 96    
Minimum Humidity 33    
Precipitation  
Precipitation 0.00 in - - ()
Sea Level Pressure  
Sea Level Pressure 30.23 in    
Wind  
Wind Speed 0 mph (North)    
Max Wind Speed 6 mph    
Max Gust Speed -    
Visibility 10 miles    
Events      
Averages and records for this station are not official NWS values.
T = Trace of Precipitation, MM = Missing Value Source: NWS Daily Summary

Daily Weather History Graph

Daily Weather History Graph

Search for Another Location

Airport or City:

Trip Planner

Search our weather history database for the weather conditions in past years. The results will help you decide how hot, cold, wet, or windy it might be!

Date:

Astronomy

Aug. 26, 2013 Rise Set
Actual Time 6:35 AM EDT 7:44 PM EDT
Civil Twilight 6:08 AM EDT 8:11 PM EDT
Nautical Twilight 5:37 AM EDT 8:42 PM EDT
Astronomical Twilight 5:04 AM EDT 9:15 PM EDT
Moon 11:06 PM EDT (8/26) 12:23 PM EDT (8/26)
Length of Visible Light 14h 02m
Length of Day
13h 08m
Waning Gibbous, 67% of the Moon is Illuminated
Aug 26
Waning Gibbous
Aug 28
Last Quarter
Sep 5
New
Sep 12
First Quarter
Sep 19
Full

Hourly Weather History & Observations

Time (EDT) Temp. Heat Index Dew Point Humidity Pressure Visibility Wind Dir Wind Speed Gust Speed Precip Events Conditions
12:15 AM 57.2 °F - 54.7 °F 91% 30.35 in 10.0 mi Calm Calm - N/A   Clear
12:35 AM 56.1 °F - 54.3 °F 94% 30.34 in 10.0 mi Calm Calm - N/A   Clear
12:55 AM 55.6 °F - 54.3 °F 96% 30.34 in 7.0 mi Calm Calm - N/A   Clear
1:15 AM 55.4 °F - 54.0 °F 95% 30.34 in 10.0 mi Calm Calm - N/A   Clear
1:35 AM 55.4 °F - 53.4 °F 93% 30.33 in 10.0 mi Calm Calm - N/A   Clear
1:55 AM 54.7 °F - 53.2 °F 95% 30.32 in 10.0 mi Calm Calm - N/A   Clear
2:15 AM 54.5 °F - 53.1 °F 95% 30.32 in 10.0 mi Calm Calm - N/A   Clear
2:35 AM 54.5 °F - 52.5 °F 93% 30.31 in 10.0 mi Calm Calm - N/A   Clear
2:55 AM 53.8 °F - 52.3 °F 95% 30.30 in 7.0 mi Calm Calm - N/A   Clear
3:15 AM 52.3 °F - 51.1 °F 95% 30.30 in 1.8 mi Calm Calm - N/A   Mist
3:35 AM 52.9 °F - 51.8 °F 96% 30.30 in 10.0 mi Calm Calm - N/A   Clear
3:55 AM 52.0 °F - 50.9 °F 96% 30.29 in 4.0 mi Calm Calm - N/A   Clear
4:15 AM 51.8 °F - 50.5 °F 95% 30.29 in 10.0 mi Calm Calm - N/A   Clear
4:35 AM 50.9 °F - 49.6 °F 95% 30.29 in 10.0 mi Calm Calm - N/A   Clear
4:55 AM 50.4 °F - 49.1 °F 95% 30.29 in 10.0 mi Calm Calm - N/A   Clear
5:15 AM 50.4 °F - 49.1 °F 95% 30.29 in 10.0 mi Calm Calm - N/A   Clear
5:35 AM 50.0 °F - 48.6 °F 95% 30.29 in 10.0 mi Calm Calm - N/A   Clear
5:55 AM 50.0 °F - 48.9 °F 96% 30.29 in 10.0 mi Calm Calm - N/A   Clear
6:15 AM 50.2 °F - 49.1 °F 96% 30.29 in 10.0 mi Calm Calm - N/A   Clear
6:35 AM 49.6 °F - 48.4 °F 95% 30.29 in 10.0 mi Calm Calm - N/A   Clear
6:55 AM 49.5 °F - 48.2 °F 95% 30.29 in 10.0 mi Calm Calm - N/A   Clear
7:15 AM 49.6 °F - 48.2 °F 95% 30.29 in 10.0 mi Calm Calm - N/A   Clear
7:35 AM 51.3 °F - 49.5 °F 94% 30.29 in 10.0 mi Calm Calm - N/A   Clear
7:55 AM 53.6 °F - 51.6 °F 93% 30.30 in 10.0 mi Calm Calm - N/A   Clear
8:15 AM 56.5 °F - 54.1 °F 92% 30.30 in 10.0 mi Calm Calm - N/A   Clear
8:35 AM 60.3 °F - 56.8 °F 88% 30.30 in 10.0 mi Calm Calm - N/A   Clear
8:55 AM 62.8 °F - 58.5 °F 86% 30.29 in 10.0 mi Calm Calm - N/A   Clear
9:15 AM 64.6 °F - 58.1 °F 79% 30.29 in 10.0 mi Calm Calm - N/A   Clear
9:35 AM 66.4 °F - 58.6 °F 76% 30.30 in 10.0 mi Calm Calm - N/A   Clear
9:55 AM 68.0 °F - 58.3 °F 71% 30.30 in 10.0 mi Calm Calm - N/A   Clear
10:15 AM 69.8 °F - 56.7 °F 63% 30.30 in 10.0 mi Calm Calm - N/A   Clear
10:35 AM 70.7 °F - 56.8 °F 61% 30.30 in 10.0 mi Calm Calm - N/A   Clear
10:55 AM 72.0 °F - 57.6 °F 60% 30.30 in 10.0 mi North 3.5 mph - N/A   Clear
11:15 AM 72.5 °F - 58.5 °F 61% 30.29 in 10.0 mi NNW 3.5 mph - N/A   Clear
11:35 AM 73.2 °F - 57.0 °F 57% 30.29 in 10.0 mi North 4.6 mph - N/A   Clear
11:55 AM 74.3 °F - 57.6 °F 56% 30.28 in 10.0 mi NNE 3.5 mph - N/A   Clear
12:15 PM 75.2 °F - 57.4 °F 54% 30.27 in 10.0 mi Calm Calm - N/A   Clear
12:35 PM 75.9 °F - 55.9 °F 50% 30.26 in 10.0 mi North 5.8 mph - N/A   Clear
12:55 PM 77.2 °F - 55.2 °F 47% 30.25 in 10.0 mi NNW 3.5 mph - N/A   Clear
1:15 PM 78.1 °F - 50.4 °F 38% 30.25 in 10.0 mi Calm Calm - N/A   Clear
1:35 PM 78.6 °F - 48.2 °F 34% 30.24 in 10.0 mi Calm Calm - N/A   Clear
1:55 PM 78.6 °F - 48.4 °F 34% 30.22 in 10.0 mi Calm Calm - N/A   Clear
2:15 PM 80.8 °F - 49.1 °F 33% 30.22 in 10.0 mi Calm Calm - N/A   Clear
2:35 PM 80.2 °F - 51.4 °F 37% 30.20 in 10.0 mi Calm Calm - N/A   Clear
2:55 PM 80.8 °F - 51.8 °F 36% 30.19 in 10.0 mi Calm Calm - N/A   Clear
3:15 PM 79.9 °F - 49.3 °F 34% 30.19 in 10.0 mi Calm Calm - N/A   Clear
3:35 PM 81.0 °F - 50.9 °F 35% 30.18 in 10.0 mi West 3.5 mph - N/A   Clear
3:55 PM 80.8 °F - 50.9 °F 35% 30.17 in 10.0 mi Calm Calm - N/A   Clear
4:15 PM 81.3 °F 80.6 °F 53.1 °F 37% 30.16 in 10.0 mi Calm Calm - N/A   Clear
4:35 PM 81.3 °F 80.8 °F 54.0 °F 39% 30.15 in 10.0 mi Calm Calm - N/A   Clear
4:55 PM 81.0 °F 80.4 °F 53.1 °F 38% 30.15 in 10.0 mi Calm Calm - N/A   Clear
5:15 PM 80.8 °F - 52.9 °F 38% 30.14 in 10.0 mi Calm Calm - N/A   Clear
5:35 PM 79.7 °F - 53.1 °F 40% 30.14 in 10.0 mi Calm Calm - N/A   Clear
5:55 PM 79.0 °F - 57.2 °F 47% 30.14 in 10.0 mi Calm Calm - N/A   Clear
6:15 PM 78.4 °F - 55.6 °F 45% 30.14 in 10.0 mi Calm Calm - N/A   Clear
6:35 PM 76.3 °F - 57.6 °F 52% 30.13 in 10.0 mi Calm Calm - N/A   Clear
6:55 PM 74.7 °F - 58.5 °F 57% 30.13 in 10.0 mi Calm Calm - N/A   Clear
7:15 PM 73.4 °F - 58.3 °F 59% 30.13 in 10.0 mi Calm Calm - N/A   Clear
7:35 PM 71.2 °F - 59.9 °F 67% 30.12 in 10.0 mi Calm Calm - N/A   Clear
7:55 PM 69.8 °F - 59.0 °F 68% 30.12 in 10.0 mi Calm Calm - N/A   Clear
8:15 PM 66.6 °F - 60.1 °F 80% 30.11 in 10.0 mi Calm Calm - N/A   Clear
8:35 PM 67.1 °F - 59.9 °F 78% 30.12 in 10.0 mi Calm Calm - N/A   Clear
8:55 PM 65.1 °F - 59.9 °F 83% 30.12 in 10.0 mi Calm Calm - N/A   Clear
9:15 PM 65.7 °F - 59.9 °F 82% 30.11 in 10.0 mi Calm Calm - N/A   Clear
9:35 PM 65.3 °F - 59.4 °F 81% 30.12 in 10.0 mi Calm Calm - N/A   Clear
9:55 PM 64.6 °F - 59.2 °F 83% 30.11 in 10.0 mi Calm Calm - N/A   Clear
10:15 PM 63.9 °F - 59.0 °F 84% 30.12 in 10.0 mi Calm Calm - N/A   Clear
10:35 PM 63.7 °F - 59.0 °F 85% 30.12 in 10.0 mi Calm Calm - N/A   Clear
10:55 PM 62.6 °F - 58.6 °F 87% 30.12 in 10.0 mi Calm Calm - N/A   Clear
11:15 PM 62.8 °F - 58.8 °F 87% 30.12 in 10.0 mi Calm Calm - N/A   Clear
11:35 PM 62.2 °F - 59.0 °F 89% 30.12 in 10.0 mi Calm Calm - N/A   Clear
11:55 PM 62.6 °F - 58.8 °F 87% 30.12 in 10.0 mi Calm Calm - N/A   Clear